Regional Weather Roundup
Issued by NWS

Home | Current Version | Previous Version | Text Only | Print | Product List | Glossary Off
Versions: 1 2 3 4 5 6 7 8 9 10 11 12 13 14 15 16 17 18 19 20 21 22 23 24 25 26 27 28 29 30 31 32 33 34 35 36 37 38 39 40 41 42 43 44 45 46 47 48 49 50

000
ASUS45 KSLC 280110
RWRUT

UTAH REGIONAL WEATHER ROUNDUP
NATIONAL WEATHER SERVICE SALT LAKE CITY UT
600 PM MST FRI FEB 27 2015

UTZ001>011-023>025-280200-

NORTHERN UTAH

CITY           SKY/WX    TMP DP  RH WIND       PRES   REMARKS
BRIGHAM CITY   CLOUDY    40  29  63 N14       29.71S WCI  33
HILL AFB       PTCLDY    41  15  36 SW2       29.69S
LOGAN          CLOUDY    35  29  78 NW10      29.72R WCI  27
OGDEN          MOCLDY    42  23  46 E3        29.69S
PROVO AIRPORT  NOT AVBL
SALT LAKE CITY PTCLDY    42  28  57 SW6       29.70S
VERNAL         PTCLDY    35  14  42 SE7       29.73S WCI  29
WENDOVER       MOCLDY    45  19  36 SW5       29.66S
HEBER CITY     CLOUDY    34  23  64 W8        29.69S WCI  27
WEST JORDAN    CLEAR     37  28  70 S5        29.70F WCI  34

$$

UTZ012>022-026-027-280200-

SOUTHERN/CENTRAL UTAH

CITY           SKY/WX    TMP DP  RH WIND       PRES   REMARKS
BLANDING       CLOUDY    31  29  93 S3        29.83S
BRYCE CANYON   LGT SNOW  25  24  96 NE3       29.69S FOG
CEDAR CITY     PTCLDY    41  23  48 SW7       29.64F
DELTA          PTCLDY    43  15  31 NE5       29.67R
HANKSVILLE     PTCLDY    43  28  56 S8        29.73R
MILFORD        PTCLDY    45  13  27 SW7       29.64R
MOAB/CYNLANDS  PTCLDY    43  22  43 E12       29.69R
PRICE          CLOUDY    33  24  69 W3        29.71R
ST GEORGE      MOCLDY    57  23  26 W6        29.64S
KANAB          PTCLDY    39  32  75 E7        29.72S WCI  34

$$

REGIONAL REPORTS     COLORADO/ARIZONA

CITY           SKY/WX    TMP DP  RH WIND       PRES   REMARKS
CRAIG, CO      CLEAR     29  12  49 CALM      29.74S
GRAND JUNCTION PTCLDY    38  24  57 CALM      29.73S
RIFLE          CLOUDY    34  21  59 NW9       29.73R WCI  27
MONTROSE       PTCLDY    31  24  75 SE8       29.77S WCI  23
CORTEZ         LGT SNOW  32  30  92 CALM      29.76F FOG
PAGE, AZ       LGT RAIN  42  34  73 NE5       29.71S
GRAND CANYON   LGT SNOW  34  31  88 VRB3      29.72F FOG
KINGMAN        PTCLDY    57  23  26 S13       29.65S
FLAGSTAFF      LGT RAIN  39  23  52 SW15G29   29.73R WCI  31

$$

REGIONAL REPORTS    NEVADA/IDAHO/WYOMING

CITY           SKY/WX    TMP DP  RH WIND       PRES   REMARKS
LAS VEGAS, NV  PTCLDY    63  24  22 SE8       29.54F
ELY            CLOUDY    40  14  34 SW3       29.62S
ELKO           MOCLDY    41  27  57 S7        29.60F
POCATELLO, ID  PTCLDY    36  25  64 NE7       29.71S WCI  30
BURLEY         MOCLDY    40  27  59 E9        29.67S WCI  34
EVANSTON, WY   MOCLDY    29  18  63 SW5       29.68R WCI  24
ROCK SPRINGS   MOCLDY    26  15  63 S3        29.71R
KEMMERER       CLOUDY    27  19  74 SE3       29.69S

$$



USA.gov is the U.S. government's official web portal to all federal, state and local government web resources and services.